Terminal Aerodrome Forecast
Issued by NWS

Home | Current Version | Previous Version | Text Only | Print | Product List | Glossary Off
Versions: 1 2 3 4 5 6 7 8 9 10 11 12 13 14 15 16 17 18 19 20 21 22 23 24 25 26 27 28 29

000
FTUS43 KABR 030017 AAA
TAFMBG
TAF AMD
KMBG 030017Z 0300/0324 13005KT P6SM OVC022
     FM030300 20005KT P6SM BKN035
     FM030700 19006KT 2SM BR BKN030
     FM031200 17007KT 1 1/2SM BR SCT030
     FM031500 18009KT P6SM SCT040=

USA.gov is the U.S. government's official web portal to all federal, state and local government web resources and services.